Hourly Data Report for October 03, 2017

All times are specified in Local Standard Time (LST). Add 1 hour to adjust for Daylight Saving Time where and when it is observed.

SALMON ARM CS
BRITISH COLUMBIA

50°42'10.800" N
119°17'26.440" W
350.50 m
116FRMN
71218
WSL

Download Data

Hourly Data (October 2017)
Hourly Data Report for October 3, 2017
Temp Definition
°C
Dew Point Temp Definition
°C
Rel Hum Definition
%
Wind Dir Definition
10's deg

Wind Spd Definition
km/h
Visibility Definition
km
Stn Press Definition
kPa
Hmdx Definition


Wind Chill Definition


Weather Definition


TIME
00:00 0.4 -0.8 91 21 4   98.56     LegendNANA
01:00 1.0 -0.1 92 17 3   98.61     LegendNANA
02:00 0.6 -0.6 92 17 6   98.65     LegendNANA
03:00 -0.1 -1.1 93 17 5   98.67   -2 LegendNANA
04:00 0.2 -0.4 96 19 5   98.72     LegendNANA
05:00 -0.4 -1.0 95 18 5   98.72   -2 LegendNANA
06:00 -0.5 -0.9 97 20 5   98.78   -2 LegendNANA
07:00 0.5 -0.3 94 17 5   98.83     LegendNANA
08:00 2.4 0.3 86 24 2   98.86     LegendNANA
09:00 7.6 3.0 73 18 3   98.85     LegendNANA
10:00 9.8 -0.1 50 28 1   98.82     LegendNANA
11:00 11.4 1.0 49 3 3   98.77     LegendNANA
12:00 12.2 0.1 43 33 3   98.71     LegendNANA
13:00 13.9 1.9 44 3 5   98.60     LegendNANA
14:00 14.9 0.1 36 2 2   98.54     LegendNANA
15:00 15.3 0.3 36 6 2   98.48     LegendNANA
16:00 15.5 2.2 41 30 2   98.43     LegendNANA
17:00 10.0 4.4 68 26 3   98.43     LegendNANA
18:00 7.6 2.4 70 16 6   98.42     LegendNANA
19:00 5.9 2.1 76 18 5   98.44     LegendNANA
20:00 3.4 1.4 87 18 3   98.46     LegendNANA
21:00 3.3 0.6 83 17 4   98.50     LegendNANA
22:00 1.8 0.0 88 17 2   98.51     LegendNANA
23:00 1.9 -0.1 87 19 5   98.54     LegendNANA

Notes on Data Quality.

Legend

  • E = Estimated
  • M = Missing
  • NA = Not Available
  • ‡ = Partner data that is not subject to review by the National Climate Archives
Date modified: